Weather Roundup
Issued by NWS

Home | Current Version | Previous Version | Graphics & Text | Print | Product List | Glossary Off
Versions: 1 2 3 4 5 6 7 8 9 10 11 12 13 14 15 16 17 18 19 20 21 22 23 24 25 26 27 28 29 30 31 32 33 34 35 36 37 38 39 40 41 42 43 44 45 46 47 48 49 50

000
NZUS93 KARX 310510
HRRWXR

CURRENT HOURLY OBSERVATIONS ACROSS
MUCH OF THE UPPER MISSISSIPPI VALLEY
NATIONAL WEATHER SERVICE LA CROSSE WI
1200 AM CDT THU JUL 31 2014


...SOUTHEAST MINNESOTA...


CITY           SKY/WX    TMP DP  RH WIND       PRES   REMARKS
ROCHESTER      CLEAR     61  57  87 W8        30.08S
ROCHESTER/MAYO FAIR      66  56  69 W8        30.06S
WINONA         CLEAR     66  61  82 W3        30.04R
AUSTIN         CLEAR     64  55  72 W5        30.08S
ALBERT LEA     CLEAR     64  57  77 CALM      30.08F
DODGE CENTER   PTCLDY    61  57  88 W6        30.07S
PRESTON        CLEAR     63  60  91 W8        30.07S
OWATONNA       CLEAR     61  55  82 SW3       30.07S
FARIBAULT      CLEAR     64  57  77 W3        30.06F
$$

...ELSEWHERE IN MINNESOTA...


CITY           SKY/WX    TMP DP  RH WIND       PRES   REMARKS
MINNEAPOLIS    CLEAR     70  58  65 W6        30.04S
INTNL FALLS    MOCLDY    57  56  96 CALM      29.99S
DULUTH         PTCLDY    64  56  75 NW6       30.00S
RED WING       CLEAR     61  57  88 CALM      30.03R
REDWOOD FALLS  CLEAR     65  56  72 W3        30.08S
MANKATO        CLEAR     63  54  72 W5        30.07S
WORTHINGTON    CLEAR     61  54  77 CALM      30.12S
FAIRMONT       CLEAR     61  46  59 W3        30.09S
$$

...SOUTHWEST WISCONSIN...


CITY           SKY/WX    TMP DP  RH WIND       PRES   REMARKS
LA CROSSE      CLEAR     67  62  84 SE3       30.02S
PRAIRIE DU CHI CLEAR     62  59  88 CALM      30.04S
BOSCOBEL       CLEAR     62  60  93 SW3       30.04S
LONE ROCK      PTCLDY    63  56  78 CALM      30.03S
PLATTEVILLE    CLEAR     64  58  81 SW6       30.06S
FORT MC COY    PTCLDY    61  60  96 CALM      30.03S
CAMP DOUGLAS   MOCLDY    64  63  97 W5        30.03R
VIROQUA        FAIR      62  61  96 SW6       30.05S
WIS DELLS      PTCLDY    62  53  72 CALM      30.03S
$$

...ELSEWHERE IN WISCONSIN...


CITY           SKY/WX    TMP DP  RH WIND       PRES   REMARKS
MILWAUKEE      MOCLDY    61  54  77 SW7       30.02S
MADISON        CLEAR     62  54  74 CALM      30.03S
GREEN BAY      PTCLDY    59  58  96 SW6       29.98S
EAU CLAIRE     CLEAR     62  60  93 SW5       30.01S
BLACK RVR FLS    N/A     61  61 100 CALM      30.02S FOG
MEDFORD        LGT RAIN  60  58  95 W8        30.01F
WAUSAU         MOCLDY    62  58  86 NW8       30.00R
WIS RAPIDS     LGT RAIN  63  59  87 NW9       30.04R
MARSHFIELD     CLOUDY    62  59  90 NE5       30.03R
RICE LAKE      CLEAR     59  58  95 CALM      30.03S FOG
$$

...NORTHEAST IOWA...


CITY           SKY/WX    TMP DP  RH WIND       PRES   REMARKS
WATERLOO       CLEAR     65  60  84 W5        30.07S
DUBUQUE        CLEAR     59  57  93 SW3       30.07S
DECORAH        CLEAR     64  59  82 CALM      30.06S
MASON CITY     CLEAR     58  57  97 CALM      30.10S
CHARLES CITY   CLEAR     61  59  94 W5        30.09S
OELWEIN        PTCLDY    63  61  94 W7        30.08S
$$

...ELSEWHERE IN IOWA...


CITY           SKY/WX    TMP DP  RH WIND       PRES   REMARKS
DES MOINES     CLEAR     69  56  62 CALM      30.09S
IOWA CITY      CLEAR     67  61  81 CALM      30.08S
FORT DODGE     CLEAR     59  57  94 CALM      30.11S
MARSHALLTOWN   CLEAR     61  58  90 W3        30.09R
CEDAR RAPIDS   CLEAR     64  60  87 NW7       30.07R
$$

...NORTHERN ILLINOIS...


CITY           SKY/WX    TMP DP  RH WIND       PRES   REMARKS
CHICAGO-OHARE  CLEAR     63  55  75 S6        30.03F
DUPAGE         CLEAR     62  58  86 CALM      30.03F
CHICAGO-MIDWAY CLEAR     66  61  84 SE3       30.03F
MOLINE         CLEAR     62  58  86 CALM      30.06R
ROCKFORD       CLEAR     61  55  81 CALM      30.07R
STERLING       CLEAR     59  54  82 CALM      30.06S
PEORIA         CLEAR     66  59  78 N3        30.06S
$$

NOTE: "FAIR" INDICATES FEW OR NO CLOUDS BELOW 12,000 FEET WITH NO
SIGNIFICANT WEATHER AND/OR OBSTRUCTIONS TO VISIBILITY. WIND
SPEEDS ARE IN MILES-PER-HOUR.



USA.gov is the U.S. government's official web portal to all federal, state and local government web resources and services.